Location: Eaton
(41.3139°N, 82.0207°W)
Time: 13:29:39
(UTC+00:00)

Cosmos 1626 Rocket - Pass Details

Date: 17 June 2021
Orbit: 602 x 632 km, 82.5° (Epoch: 30 July)

Event Time Altitude Azimuth Distance (km) Brightness Sun altitude
Exits shadow 05:11:50 59° 69° (ENE) 733 3.9 -25.2°
Drops below altitude 10° 05:15:52 10° 15° (NNE) 2,012 7.1 -25.2°
Sets 05:18:08 0° 12° (NNE) 2,920 8.3 -25.3°
